Tracking 30466 objects as of 17-May-2025
HD Live streaming from Space Station
objects crossing your sky now

ATLAS 5 CENTAUR DEB

Track ATLAS 5 CENTAUR DEB now!


NORAD ID: 46657
Int'l Code: 2018-079CK
Perigee: 7,123.2 km
Apogee: 39,474.5 km
Inclination: 12.1 °
Period: 847.7 minutes
Semi major axis: 29669 km
RCS: Unknown
Launch date: October 17, 2018
Source: United States (US)
Launch site: AIR FORCE EASTERN TEST RANGE (AFETR)

Note: This is SATELLITE DEBRIS
Your satellite tracking list
Your tracking list is empty




NASA's NSSDC Master Catalog

Two Line Element Set (TLE):
1 46657U 18079CK  25136.30055645 -.00000064  00000-0  00000-0 0  9999
2 46657  12.0756  55.6900 5451876 277.3640  26.7776  1.69875026 28583
Source of the keplerian elements: AFSPC